Miscellaneous Local Product
Issued by NWS Hastings, NE

Home | Current Version | Previous Version | Text Only | Print | Product List | Glossary Off
Versions: 1 2 3 4 5 6 7 8 9 10 11 12 13 14 15 16 17 18 19 20 21 22 23 24 25 26 27 28 29 30 31 32 33 34 35 36 37 38 39 40 41 42 43 44 45 46 47 48 49 50

000
AXUS43 KGID 042002
MISGRI

GID CWA HOURLY WEATHER ROUNDUP
NATIONAL WEATHER SERVICE HASTINGS NE
300 PM CDT FRI SEP 04 2015

NOTE: "FAIR" INDICATES FEW OR NO CLOUDS BELOW 12,000 FEET WITH NO
SIGNIFICANT WEATHER AND/OR OBSTRUCTIONS TO VISIBILITY.

...SOUTH CENTRAL NEBRASKA...

CITY           SKY/WX    TMP DP  RH WIND       PRES   REMARKS
GRAND ISLAND   SUNNY     91  64  40 S23G31    29.83F HX  92
HASTINGS       SUNNY     94  64  37 S14G26    29.83F HX  95
KEARNEY        MOSUNNY   91  64  40 S21       29.83F HX  93
ORD            SUNNY     90  64  42 S17G25    29.82S HX  91
YORK           SUNNY     91  66  43 S21G29    29.85S HX  94
AURORA         SUNNY     93  65  40 S18G25    29.84F HX  95
LEXINGTON      PTSUNNY   90  61  37 S12       29.84S HX  90
HOLDREGE       MOSUNNY   92  57  31 S15G24    29.84S HX  90
HEBRON         SUNNY     92  62  36 S18G26    29.85S HX  92

...NEBRASKA PANHANDLE...

CITY           SKY/WX    TMP DP  RH WIND       PRES   REMARKS
CHADRON        SUNNY     91  48  22 W8        29.82F
ALLIANCE       SUNNY     90  47  22 CALM      29.87F
SCOTTSBLUFF    MOSUNNY   89  43  20 SE7       29.88F
SIDNEY         SUNNY     91  40  16 VRB5      29.92F

...WESTERN AND NORTH CENTRAL NEBRASKA...

CITY           SKY/WX    TMP DP  RH WIND       PRES   REMARKS
VALENTINE      SUNNY     93  52  24 SW5       29.80S HX  90
AINSWORTH      SUNNY     89  62  40 SE8       29.82S HX  90
ONEILL         SUNNY     89  64  43 S18       29.81F HX  90
BROKEN BOW     MOSUNNY   89  63  41 S9G25     29.84S HX  90
IMPERIAL       MOSUNNY   91  52  26 VRB7      29.87F
NORTH PLATTE   MOSUNNY   89  59  36 VRB3      29.84S
MCCOOK         MOSUNNY   94  55  26 NW5       29.84F HX  92

...EASTERN NEBRASKA...

CITY           SKY/WX    TMP DP  RH WIND       PRES   REMARKS
NORFOLK        MOSUNNY   91  70  49 S17G30    29.83S HX  96
SO SIOUX CITY  PTSUNNY   85  73  67 SE15      29.85F HX  91
TEKAMAH        PTSUNNY   87  72  60 S14G23    29.87S HX  93
COLUMBUS       MOSUNNY   91  68  46 S16G22    29.83F HX  95
ALBION         SUNNY     88  66  48 S18G26    29.84S HX  90
OMAHA EPPLEY   PTSUNNY   88  71  57 SE18      29.88F HX  94
OFFUTT AFB     PTSUNNY   86  73  64 SE12      29.87F HX  93
MILLARD        PTSUNNY   88  72  58 SE14G21   29.87F HX  95
LINCOLN        MOSUNNY   92  68  45 S22G30    29.85F HX  96
NEBRASKA CITY  PTSUNNY   91  58  32 S17       29.89F HX  90
BEATRICE       MOSUNNY   92  67  43 S21       29.87F HX  95
FALLS CITY     MOSUNNY   93  68  43 S14G23    29.91F HX  97

...NORTHERN KANSAS...

CITY           SKY/WX    TMP DP  RH WIND       PRES   REMARKS
GOODLAND       SUNNY     92  47  21 VRB3      29.90F
HILL CITY      SUNNY     99  57  24 SW16      29.83F HX  98
NORTON         CLEAR     93  54  26 SE6       29.83S HX  91
PHILLIPSBURG   SUNNY    100  55  22 S21G26    29.82S HX  99
SMITH CENTER   SUNNY     93  63  36 S22G30    29.83F HX  94
HAYS           SUNNY     99  61  28 S22G31    29.83F HX  99
RUSSELL        SUNNY     97  61  30 S26G35    29.84F HX  97
CONCORDIA      SUNNY     93  64  38 S23G33    29.86F HX  94
SALINA         SUNNY     95  65  37 S21G31    29.87F HX  97
TOPEKA         SUNNY     91  67  44 S20G25    29.93F HX  94



USA.gov is the U.S. government's official web portal to all federal, state and local government web resources and services.